Location: Paderno d�Adda
(45.6667°N, 9.4333°E)
Time: 00:25:08
(UTC+00:00)

Cosmos 858 Rocket - Pass Details

Date: 19 September 2020
Orbit: 756 x 774 km, 74.1° (Epoch: 26 October)

Event Time Altitude Azimuth Distance (km) Brightness Sun altitude
Rises 17:58:59 0° 192° (SSW) 3,218 7.8 -6.7°
Reaches altitude 10° 18:01:21 10° 190° (S) 2,293 7.0 -7.1°
Maximum altitude 18:06:31 69° 108° (ESE) 817 4.5 -8.0°
Drops below altitude 10° 18:11:41 10° 26° (NNE) 2,299 6.8 -8.9°
Sets 18:14:04 0° 24° (NNE) 3,227 7.6 -9.3°
